This demonstration page uses our WeatherBlox Daily Observations layout. Learn more.

Left ArrowRight Arrow

38.88101, -77.10428

Hourly Observations for May 20, 2016

Temp ( °F °C ) Dew Point ( °F °C ) Humidity (%) Winds ( mph kmh ) Pressure ( in mb ) Visibility ( mi km ) Precip ( " mm )
12:52 am 00:52 Mostly Clear 59 15 51 10.6 75 75 N N/A 30.18 1022 10 16 N/A
1:52 am 01:52 Clear 57 13.9 52 11.1 83 83 SW 3 6 30.18 1022 10 16 N/A
2:52 am 02:52 Clear 56 13.3 51 10.6 84 84 N N/A 30.19 1022 10 16 N/A
3:52 am 03:52 Clear 54 12.2 51 10.6 90 90 SSW 5 7 30.19 1023 10 16 N/A
4:52 am 04:52 Partly Cloudy 54 12.2 51 10.6 90 90 N N/A 30.21 1023 10 16 N/A
5:52 am 05:52 Partly Cloudy 55 12.8 52 11.1 90 90 N N/A 30.23 1024 10 16 N/A
6:52 am 06:52 Mostly Cloudy 56 13.3 53 11.7 90 90 NE 3 6 30.25 1024 10 16 N/A
7:52 am 07:52 Mostly Cloudy 58 14.4 53 11.7 84 84 NE 3 6 30.27 1025 10 16 N/A
8:52 am 08:52 Mostly Cloudy 62 16.7 52 11.1 70 70 NE 5 7 30.28 1025 10 16 N/A
9:52 am 09:52 Mostly Cloudy 68 20 52 11.1 57 57 NNE 6 9 30.28 1025 10 16 N/A
10:52 am 10:52 Mostly Cloudy 71 21.7 47 8.3 42 42 ENE 7 11 30.27 1025 10 16 N/A
11:52 am 11:52 Mostly Cloudy 73 22.8 46 7.8 38 38 N N/A 30.28 1025 10 16 N/A
12:52 pm 12:52 Mostly Cloudy 75 23.9 42 5.6 31 31 N N/A 30.26 1025 10 16 N/A
1:52 pm 13:52 Mostly Cloudy 75 23.9 43 6.1 32 32 VRB 5 7 30.24 1024 10 16 N/A
2:52 pm 14:52 Mostly Cloudy 74 23.3 44 6.7 34 34 SSE 7 11 30.22 1023 10 16 N/A
3:52 pm 15:52 Mostly Cloudy 75 23.9 45 7.2 34 34 SE 6 9 30.21 1023 10 16 N/A
4:52 pm 16:52 Cloudy 74 23.3 44 6.7 34 34 E 9 15 30.19 1023 10 16 N/A
5:52 pm 17:52 Cloudy 72 22.2 44 6.7 37 37 ESE 9 15 30.19 1022 10 16 N/A
6:52 pm 18:52 Cloudy 71 21.7 44 6.7 38 38 ESE 12 19 30.18 1022 10 16 N/A
7:52 pm 19:52 Cloudy 69 20.6 48 8.9 47 47 S 6 9 30.19 1022 10 16 N/A
8:52 pm 20:52 Cloudy 67 19.4 49 9.4 53 53 SE 8 13 30.17 1022 10 16 N/A
9:52 pm 21:52 Cloudy 66 18.9 46 7.8 49 49 SSE 10 17 30.19 1022 10 16 N/A
10:52 pm 22:52 Cloudy 65 18.3 50 10 59 59 SSE 10 17 30.19 1022 10 16 N/A
11:52 pm 23:52 Cloudy 64 17.8 51 10.6 63 63 S 8 13 30.16 1022 10 16 N/A

Powered by AerisWeather